Theta_e
316 316 317 318 318 318 318 318 317 317 317 316 316 316 315 314 314 317 316 311 311 313 313 314 314 314 315 315 315 315 315 314 314 314 314 314 314 314 314 314 313 312 311 310 309 308 307 305 304 302 302 301 300 299 299 298 298 298 297 297 296 296 295 295 295 294 294 294 293 293 293 293 293 292 292 291 290 290 290 290 289 288 288 288 288 287
315 316 317 318 318 317 318 318 318 317 316 316 315 314 315 315 315 317 316 310 310 312 313 314 315 314 315 314 314 314 314 314 313 313 314 314 314 315 315 314 314 312 311 310 309 308 306 304 303 302 301 301 300 299 298 298 298 298 297 297 297 296 295 295 295 294 294 294 294 294 294 294 293 293 292 292 291 290 289 289 288 288 288 288 287 287
316 316 317 317 317 317 316 316 316 316 316 316 315 315 315 316 317 317 314 310 310 311 313 314 313 314 314 314 314 314 313 313 314 314 314 315 315 315 315 315 315 313 311 310 308 308 306 304 303 302 301 301 300 299 298 298 298 298 297 297 297 296 295 295 295 294 294 294 294 294 294 294 293 293 292 292 292 291 290 289 288 288 287 287 287 286
317 317 316 316 316 316 316 315 314 314 315 316 316 315 315 317 318 316 313 310 309 310 312 313 313 314 314 314 314 314 314 314 314 315 315 316 316 316 316 317 315 313 311 310 308 307 305 304 303 302 301 300 300 299 298 298 298 297 297 297 297 296 295 295 294 294 294 294 294 294 293 293 293 292 291 290 290 290 289 288 288 288 287 287 287 286
317 316 315 315 316 316 316 315 315 314 314 316 317 317 316 318 318 317 316 313 312 312 311 312 313 314 315 316 315 315 314 314 314 314 315 316 315 316 316 317 316 314 312 311 309 307 305 304 303 302 301 300 300 299 298 298 297 297 297 297 297 296 295 295 294 294 294 294 293 292 292 292 291 291 290 290 290 289 288 288 288 288 287 287 286 286
316 315 314 315 316 316 317 316 316 317 315 315 318 318 318 318 318 319 319 316 315 315 312 313 314 314 314 317 317 315 313 313 313 313 313 314 315 316 316 316 316 314 312 311 310 308 305 304 304 303 301 300 300 299 298 298 297 297 297 297 296 296 296 295 294 294 294 293 292 292 291 291 291 291 291 291 291 291 290 289 289 288 288 287 286 285
316 312 312 316 317 317 317 316 317 318 315 314 319 320 319 319 318 319 319 317 315 315 313 312 314 315 315 315 316 316 314 313 314 315 314 314 314 317 318 317 315 313 312 312 311 308 306 305 304 303 302 300 300 299 299 298 297 297 297 297 296 296 296 295 294 294 293 293 292 292 291 292 292 292 292 292 291 292 291 290 289 288 287 286 286 285
317 314 313 316 317 317 317 316 318 318 316 316 318 319 318 317 318 319 318 317 315 316 315 314 315 316 315 315 315 315 314 314 314 315 315 315 314 314 317 319 315 313 313 312 311 309 306 305 304 303 302 300 300 299 299 298 297 297 297 297 296 296 296 295 294 294 293 292 292 292 292 292 292 293 293 292 291 291 290 289 288 288 287 286 285 285
318 317 316 316 315 317 317 317 318 319 318 317 315 315 315 316 316 316 316 315 315 315 316 316 315 316 316 315 316 315 314 313 313 313 314 314 314 313 314 318 315 313 313 312 311 309 307 306 305 304 302 301 300 299 299 298 297 297 296 296 296 296 295 295 294 293 293 292 292 292 292 292 293 293 293 292 291 290 289 288 288 287 287 286 285 284
316 312 313 315 316 317 316 313 315 319 318 314 312 313 313 314 313 314 314 314 314 316 317 317 316 316 316 314 315 315 313 313 314 313 314 314 316 316 316 319 317 313 313 313 311 310 308 307 305 304 303 301 300 299 299 298 297 297 296 296 296 296 295 295 294 293 293 292 292 292 292 292 292 292 291 291 290 289 288 288 287 287 286 286 285 285
311 306 308 313 315 314 311 308 309 313 313 312 313 314 314 313 312 312 313 312 314 318 318 317 316 316 316 315 315 315 314 314 315 314 315 315 316 318 318 319 316 313 313 312 311 310 309 307 305 304 303 301 300 299 298 298 297 297 296 296 296 296 295 295 294 293 293 292 292 292 292 292 292 291 291 290 290 289 288 288 287 287 286 286 285 285
312 309 310 312 312 310 310 310 308 308 309 312 314 314 315 315 313 313 313 312 316 319 317 316 317 317 316 314 314 314 314 314 315 314 314 315 316 318 320 319 315 313 312 311 310 309 308 306 305 303 303 301 300 299 298 298 297 297 296 296 296 296 295 295 294 293 293 292 292 292 291 291 291 291 291 290 290 289 288 288 287 287 286 285 285 284
317 315 314 313 310 309 313 313 310 307 308 312 313 313 316 317 316 317 316 315 317 318 314 314 318 319 316 314 313 314 314 313 314 314 314 315 314 317 322 320 315 313 312 311 310 309 307 306 305 303 303 301 300 299 298 298 297 297 296 296 296 296 295 294 294 293 293 292 291 291 291 291 291 291 290 290 289 289 288 288 287 286 286 285 285 284
319 318 315 314 311 310 313 314 314 312 309 311 313 314 316 317 319 321 319 318 318 317 313 311 314 316 313 312 314 314 313 313 314 314 316 316 315 318 322 320 315 313 312 311 310 309 307 306 305 304 303 302 300 299 298 298 297 297 296 296 296 295 295 294 294 293 292 292 291 291 290 290 290 290 289 289 288 288 287 287 286 285 285 285 284 284
318 317 315 316 315 312 312 314 316 316 311 311 313 314 316 317 318 318 317 317 317 315 313 311 312 313 311 312 314 314 314 314 314 314 317 317 318 322 320 316 314 312 311 311 310 309 308 306 305 304 303 302 300 299 298 298 297 296 296 296 296 295 295 294 294 293 292 292 291 291 290 290 289 289 288 288 287 287 286 285 285 284 284 283 283 283
316 318 318 316 314 312 313 315 316 316 314 312 313 314 316 316 316 316 316 316 314 314 314 312 312 312 311 313 315 314 314 314 313 315 316 315 319 322 318 314 313 312 310 310 310 309 308 306 306 305 303 302 301 299 298 297 297 297 296 296 296 295 294 294 294 293 292 292 291 290 290 289 289 288 287 287 286 286 285 284 284 283 283 282 282 282
315 317 318 313 310 309 309 312 314 314 315 314 313 315 315 315 316 317 318 316 313 314 315 314 314 313 313 314 315 314 313 313 314 314 313 313 315 318 318 317 315 313 311 311 310 309 308 306 306 305 303 302 301 300 298 297 297 296 296 296 295 295 294 294 293 293 292 291 291 290 289 289 288 287 287 286 285 285 284 283 283 282 282 281 281 281
316 316 317 312 312 308 304 307 310 310 312 313 313 315 314 313 314 314 317 316 315 316 316 315 315 314 314 315 314 313 312 312 313 313 313 313 313 315 318 319 318 314 312 311 309 309 308 306 305 305 303 302 301 300 299 298 297 296 296 296 295 294 294 294 293 292 292 291 290 290 289 288 287 287 286 285 285 284 283 283 282 282 281 281 281 280
317 317 317 311 310 308 303 307 310 308 309 310 310 311 312 313 314 314 315 315 315 317 316 314 315 313 313 315 313 312 312 312 312 312 311 312 313 314 316 317 317 315 314 312 310 309 308 306 305 305 304 302 301 300 299 298 297 296 296 295 295 294 294 294 293 292 291 291 290 289 288 288 287 286 285 285 284 283 282 282 282 281 281 280 280 280
316 316 317 309 306 308 306 308 312 311 308 307 307 309 309 311 313 313 314 314 314 315 315 315 315 313 313 314 314 314 313 312 312 312 312 311 312 314 314 316 317 317 317 315 312 311 309 307 305 304 303 302 301 300 299 298 297 296 296 295 295 294 294 293 292 292 291 290 289 289 288 287 286 285 285 284 283 282 282 281 281 281 280 280 279 279
315 316 316 309 304 308 309 309 312 313 311 308 308 309 309 309 310 311 313 313 313 314 314 315 315 313 313 314 314 314 313 313 313 312 313 313 312 313 314 315 318 319 318 316 314 313 311 308 306 303 302 301 300 299 298 297 296 296 295 295 294 294 294 293 292 291 290 289 289 288 287 286 285 284 284 283 282 282 281 281 281 280 280 279 279 279
315 315 316 312 309 310 312 313 313 313 314 312 310 311 311 311 311 312 314 314 313 314 314 315 315 313 312 313 313 312 312 313 313 313 314 315 313 313 314 315 317 319 318 316 315 314 313 310 306 303 301 300 299 298 297 297 296 295 295 295 294 294 293 292 292 291 290 289 288 287 286 285 284 284 283 282 282 281 281 280 280 279 279 279 278 278
316 316 315 315 315 315 313 312 312 312 312 312 312 312 312 312 312 313 315 315 313 313 313 314 315 315 313 313 312 311 311 311 312 313 313 314 314 313 314 315 316 317 317 316 315 314 313 311 307 302 300 299 298 297 296 296 295 295 295 294 294 293 293 292 291 290 289 288 287 286 286 284 284 283 282 281 281 281 280 280 279 279 279 278 278 277
316 316 315 314 315 316 313 307 306 306 308 310 311 312 312 312 312 313 314 313 313 314 313 314 315 315 314 313 313 312 312 311 311 311 311 312 313 312 314 315 316 316 316 315 315 313 311 308 304 301 299 298 297 297 296 296 295 295 294 294 293 293 292 292 291 289 288 287 286 285 284 283 283 282 281 281 280 280 280 279 279 278 278 278 277 276
314 315 315 315 315 316 314 310 308 307 307 309 310 311 313 313 313 314 313 311 313 315 314 314 315 314 314 315 314 313 313 311 310 311 312 312 313 312 313 315 315 315 315 314 313 311 309 305 302 301 300 298 297 296 295 295 295 294 294 293 293 292 292 291 290 289 287 286 285 284 283 282 281 281 280 280 280 279 279 278 278 278 277 277 276 276
313 314 314 314 315 316 315 315 314 311 308 308 310 311 313 313 313 314 313 312 313 314 313 314 314 313 313 314 313 312 313 311 310 311 310 310 312 312 313 315 316 315 314 313 311 310 308 305 301 300 299 298 296 295 295 295 294 294 293 293 292 292 291 290 289 288 286 285 284 283 282 281 281 280 280 279 279 279 278 278 277 277 277 276 276 275
313 314 313 313 314 314 314 315 315 314 310 309 311 311 312 313 314 313 313 313 314 313 313 314 314 314 313 312 312 312 312 312 311 311 310 310 311 312 313 316 316 315 314 313 311 310 309 305 302 300 299 298 296 295 294 294 294 293 293 292 292 291 290 289 288 287 285 284 283 282 281 280 280 279 279 279 279 278 278 277 277 276 276 276 275 275
313 313 312 312 313 313 312 313 314 314 312 311 312 312 311 312 314 315 314 313 313 314 314 314 314 315 314 312 312 312 312 312 312 311 311 311 312 312 313 313 313 313 313 312 311 310 309 307 303 301 299 297 296 295 294 293 293 293 292 292 291 290 289 288 286 285 284 283 282 281 280 280 280 279 279 279 278 277 277 277 277 276 275 275 275 275
311 312 312 312 313 312 311 312 312 313 313 313 313 313 312 312 313 314 314 313 313 314 314 314 314 315 314 312 312 312 312 312 311 310 310 310 311 312 313 311 311 311 311 310 310 309 308 307 305 302 300 298 296 294 293 293 292 292 291 291 289 288 287 286 285 284 283 282 281 281 280 279 279 279 278 278 277 277 277 276 276 276 275 275 275 276
310 311 312 312 312 313 312 312 312 312 312 312 313 314 313 313 313 313 313 313 313 313 313 313 314 314 313 312 312 311 311 311 310 310 311 310 310 312 313 312 310 310 310 310 309 308 308 307 306 304 302 299 296 294 293 292 292 291 291 289 288 287 286 285 284 283 282 281 280 280 279 279 278 278 278 277 277 276 276 276 276 276 275 275 275 275
311 311 312 312 313 313 312 312 312 312 312 312 312 313 313 313 313 313 313 313 313 313 312 312 314 314 312 312 312 311 311 310 310 310 310 310 310 310 311 311 310 310 310 310 310 309 308 307 306 304 303 300 297 295 293 292 291 291 289 288 286 286 285 284 283 282 281 280 280 280 279 278 278 277 277 277 276 276 276 276 276 276 275 275 275 275
310 310 311 312 313 313 313 313 313 312 312 312 312 312 312 312 312 312 313 313 312 312 313 313 314 313 312 311 311 311 310 310 310 309 310 310 310 310 310 310 310 310 310 310 310 310 310 308 306 304 303 301 298 295 293 292 291 290 288 287 286 284 283 283 282 281 281 280 280 279 278 278 277 277 276 276 276 276 276 276 275 275 275 275 275 275
309 310 311 312 313 313 313 313 313 313 314 313 312 311 311 311 311 311 311 312 312 312 312 312 312 311 310 310 310 309 309 309 310 310 310 310 310 311 311 310 310 310 310 310 310 310 310 309 307 305 304 301 298 295 294 292 291 289 288 286 285 283 282 282 281 281 280 280 279 278 278 277 277 277 276 276 276 276 276 276 275 275 275 274 274 274
310 310 311 312 313 313 313 313 313 314 314 314 312 311 311 310 311 311 311 311 311 311 311 311 310 310 310 310 310 310 309 310 310 310 311 311 311 312 312 311 311 311 310 310 310 310 310 310 309 306 303 301 298 296 294 292 291 289 288 286 284 282 282 281 281 280 280 279 278 277 277 277 277 276 276 275 276 276 275 275 275 274 274 274 274 272
310 310 310 311 312 313 313 313 314 315 315 313 312 312 310 309 310 310 311 310 310 310 311 311 310 310 310 310 310 310 310 310 311 311 311 311 312 312 312 311 310 310 310 310 310 309 309 309 309 306 302 299 297 295 293 292 290 288 286 284 283 281 281 280 280 279 279 278 277 277 277 276 276 275 275 275 275 275 274 274 274 274 274 273 272 270
311 311 311 311 312 313 313 314 315 316 313 311 311 311 310 311 311 311 312 311 310 310 311 310 310 310 310 311 310 311 311 311 312 312 311 311 311 311 311 310 310 310 310 310 310 309 309 309 308 305 301 298 296 294 292 290 289 287 285 283 282 281 280 280 279 278 278 277 276 276 276 276 275 274 274 274 274 274 274 274 274 273 273 272 270 269
311 311 312 312 313 313 313 313 314 315 313 312 312 312 311 311 311 312 313 313 310 310 311 310 311 311 311 311 311 311 311 312 312 311 311 310 311 311 311 310 310 310 310 310 309 309 309 308 306 304 300 297 294 293 291 289 288 286 283 281 281 280 279 279 278 277 277 276 276 275 275 275 275 274 273 273 273 273 273 273 273 273 272 270 269 268
310 311 312 313 314 314 314 314 314 315 315 314 314 313 311 311 311 312 313 313 311 310 311 311 311 311 311 311 311 312 312 312 311 311 310 310 311 311 311 310 310 310 310 309 309 308 307 305 303 302 299 296 293 292 290 288 286 284 281 280 279 278 278 278 277 277 276 276 275 275 275 275 275 274 273 273 273 273 273 272 272 272 271 270 269 269
310 310 311 313 314 314 315 315 315 315 314 314 313 312 311 312 312 312 314 314 312 310 311 311 311 311 311 311 311 312 312 312 311 311 310 310 310 311 311 311 310 309 309 308 307 308 306 302 300 299 297 294 292 291 289 287 284 282 280 279 278 278 277 277 277 276 276 275 275 275 275 275 274 274 273 273 273 273 273 272 271 271 270 269 269 269
311 311 311 312 313 313 314 315 314 314 314 314 312 311 311 311 311 314 314 315 312 311 311 310 311 311 311 311 311 311 311 311 311 311 310 311 311 311 311 311 310 309 309 308 306 305 303 299 298 297 295 293 292 290 287 286 283 281 279 278 277 277 277 277 277 276 275 275 274 274 274 274 273 273 273 273 273 272 272 271 271 269 268 268 268 268
311 311 311 312 312 312 313 314 314 313 314 314 312 311 311 311 312 314 314 313 311 311 311 310 311 311 311 311 311 311 311 310 310 310 310 310 310 309 309 310 309 309 308 306 304 301 298 295 295 295 294 292 291 289 286 284 283 280 279 278 277 277 277 277 276 275 275 274 273 273 273 273 273 273 273 273 273 272 271 271 270 268 268 268 268 268
312 311 311 312 312 311 311 313 313 313 314 314 312 311 311 312 312 313 312 310 310 311 311 310 311 310 310 311 310 310 310 310 310 310 309 309 309 308 308 308 308 307 304 301 299 297 294 293 293 293 292 290 288 287 285 283 282 280 279 277 277 277 277 276 275 275 274 273 272 272 272 272 272 272 272 272 271 271 270 269 268 268 268 267 268 268
313 313 312 312 312 312 312 313 313 313 315 314 312 311 311 312 312 311 310 311 312 311 311 311 311 311 311 311 310 311 310 310 309 309 308 309 308 308 308 307 306 306 303 300 297 295 293 294 293 291 289 288 286 285 284 283 282 280 278 277 277 276 276 275 274 273 272 271 270 270 270 271 271 271 271 271 271 270 269 268 268 268 267 267 268 268
313 315 313 311 311 312 312 313 313 314 314 312 311 312 312 311 311 311 310 311 312 311 311 311 311 311 311 310 310 310 310 309 309 308 308 308 308 308 308 307 306 304 302 300 297 292 292 294 293 290 287 285 284 283 282 282 282 280 278 277 277 275 275 274 272 272 270 269 269 269 269 270 270 270 270 270 270 269 268 267 267 267 267 267 268 267
314 313 312 312 312 312 312 312 312 311 311 310 310 311 312 311 311 311 311 310 311 311 312 312 312 312 311 311 311 310 309 309 309 308 308 308 308 308 307 307 306 304 301 299 295 290 290 293 292 289 285 282 281 281 281 281 282 280 277 277 276 274 273 272 271 270 269 268 268 268 269 269 269 269 270 269 269 268 267 266 266 266 266 267 267 267
310 309 309 310 311 310 310 312 311 309 308 308 307 308 309 310 310 310 310 310 310 310 310 311 310 310 310 310 310 308 308 308 308 308 308 308 307 307 307 307 306 303 300 300 296 290 289 290 290 289 286 282 279 279 279 280 281 280 277 276 274 273 272 271 269 268 268 267 267 268 268 268 268 268 268 268 268 268 267 266 266 266 266 266 267 267
307 306 304 306 307 306 308 311 309 306 305 305 305 306 307 308 309 308 308 309 309 308 307 307 306 307 307 307 307 307 306 306 306 307 307 307 307 307 307 307 307 304 301 300 296 290 288 290 290 290 288 282 278 277 278 279 280 279 276 274 273 272 271 270 269 267 266 266 266 267 268 268 267 267 266 266 267 266 266 266 267 266 266 267 267 267
303 302 300 301 303 303 304 305 305 305 304 305 306 307 308 309 309 307 307 308 308 307 307 307 307 307 307 308 308 308 307 307 307 307 306 306 306 307 306 307 307 305 303 299 293 289 289 291 290 289 287 282 278 276 276 277 278 277 275 273 272 271 270 269 268 267 266 266 266 266 266 266 266 266 266 266 266 266 265 266 267 266 267 267 267 267
298 298 297 298 300 299 299 301 304 305 305 305 306 307 307 308 308 307 306 306 306 306 306 307 307 308 309 309 309 308 308 308 308 307 307 306 306 306 306 306 306 306 305 300 293 288 289 290 290 288 285 281 277 275 276 276 276 275 273 272 271 271 269 268 267 266 265 265 265 264 264 265 265 265 265 265 265 265 266 267 267 267 267 267 267 267
295 295 296 297 298 298 298 299 303 305 305 305 305 305 305 305 304 302 302 302 302 303 303 303 303 304 305 305 306 306 307 307 306 306 306 305 305 305 305 306 305 306 305 300 291 287 287 287 286 286 283 279 276 275 275 275 274 273 272 271 270 270 269 267 266 265 264 264 264 264 264 265 265 265 265 265 265 265 266 266 267 267 267 267 267 268
295 296 296 297 298 298 298 299 301 302 301 300 301 300 298 297 297 297 297 297 297 298 298 298 298 298 299 301 303 304 305 305 305 305 305 305 304 304 304 305 305 305 305 300 293 290 288 286 284 284 282 278 275 274 275 274 272 271 270 270 269 270 269 268 266 264 263 263 264 264 264 264 264 265 265 265 265 265 265 265 266 267 267 267 267 267
Wind_Speed
3 5 7 9 12 13 14 15 16 16 11 12 12 10 13 12 13 16 7 6 6 6 10 14 15 19 21 19 18 17 16 17 18 17 17 18 15 13 14 15 14 14 11 11 15 19 22 22 22 23 22 23 25 25 26 27 27 27 26 26 26 24 24 22 20 20 19 17 16 15 14 13 13 13 12 12 12 12 11 11 13 12 10 11 11 11
3 6 11 16 17 13 9 9 11 13 11 11 12 11 12 11 13 14 3 6 6 4 9 13 15 19 20 18 17 17 17 18 19 19 20 20 16 12 14 16 14 11 8 10 13 15 19 21 22 23 22 24 26 26 28 28 28 28 27 27 27 25 25 23 22 21 20 19 18 16 16 14 13 13 12 11 11 11 12 13 13 12 11 11 11 11
6 10 18 20 11 5 3 4 8 12 13 11 9 9 10 10 12 8 4 6 5 3 7 11 13 16 18 18 18 19 19 17 19 21 19 17 16 14 14 13 12 10 9 10 12 13 17 20 22 22 22 24 27 27 28 28 28 28 27 27 27 26 26 24 23 23 21 19 18 15 14 14 12 11 12 12 11 12 14 14 13 12 12 12 11 10
8 9 14 12 4 4 7 6 7 9 9 10 8 7 10 10 10 6 2 4 6 6 7 11 11 13 16 17 19 23 21 16 18 21 18 15 15 16 14 11 10 11 11 11 12 13 16 19 21 22 22 23 25 25 27 29 29 29 29 28 28 27 27 25 24 24 21 18 18 15 14 15 13 11 13 14 15 15 15 14 14 13 13 12 11 11
13 7 1 1 3 7 10 7 7 8 8 9 10 10 11 11 11 9 2 1 7 8 4 8 10 11 12 14 15 13 11 11 14 16 15 14 14 14 13 11 10 11 11 11 13 14 14 17 21 23 22 23 25 27 29 30 30 30 29 29 28 27 26 26 25 24 21 20 20 18 16 15 14 12 12 13 14 15 15 14 13 13 13 13 12 11
15 5 4 3 4 6 9 8 9 9 8 9 11 15 16 15 14 11 5 5 8 6 2 2 9 8 7 11 11 4 4 8 9 11 13 13 12 11 11 11 10 10 9 10 12 14 14 16 19 22 23 24 26 27 29 30 30 28 28 29 28 27 25 25 25 25 23 23 22 21 19 16 15 13 13 14 13 13 13 13 12 11 12 13 12 12
6 2 2 6 7 6 8 11 11 10 8 8 5 7 12 13 13 11 6 3 6 6 1 1 7 9 5 7 9 5 6 10 7 8 12 10 10 10 8 8 9 10 9 9 11 13 14 15 17 19 23 26 26 27 26 27 28 28 27 28 28 27 25 25 26 27 26 24 22 22 21 18 16 14 14 14 12 11 11 10 10 11 12 13 13 12
4 4 3 6 7 7 9 10 10 11 9 5 1 2 2 6 9 8 5 5 6 8 4 5 4 11 10 7 11 10 10 11 9 10 12 9 11 14 11 7 10 11 10 10 10 13 14 15 16 19 22 25 24 25 25 25 28 28 28 29 29 28 26 27 28 29 29 26 23 22 20 17 15 14 12 12 11 11 11 11 10 11 11 13 14 13
3 5 6 8 7 8 7 3 2 10 9 2 3 3 3 1 2 3 4 6 6 8 7 7 8 8 12 6 12 14 13 13 13 15 14 11 11 15 15 7 10 11 11 11 11 13 13 14 17 20 21 22 23 24 25 26 27 29 29 29 30 29 26 27 30 31 30 28 24 22 20 17 15 13 12 11 11 11 12 13 12 11 11 12 14 14
3 1 2 7 8 6 3 4 4 4 5 2 4 5 6 3 2 1 4 5 6 9 9 8 12 7 13 5 10 11 11 11 13 12 12 13 10 11 13 7 8 9 9 10 11 12 12 14 17 18 19 20 22 24 24 25 27 29 29 29 31 30 27 27 31 32 31 28 24 22 20 18 16 14 13 12 11 11 11 12 12 12 11 11 11 12
3 3 1 4 6 2 4 6 5 3 2 5 5 3 2 2 2 2 4 2 5 11 10 12 17 11 10 2 9 9 10 12 11 9 10 11 10 9 9 6 8 8 8 9 9 10 11 13 15 17 18 19 21 22 23 24 27 29 29 29 31 30 27 27 30 32 31 29 25 22 21 20 18 16 15 14 12 12 12 11 11 11 11 10 11 11
6 5 3 2 1 3 5 3 3 3 2 3 3 2 3 4 2 3 3 3 6 10 5 12 20 17 11 3 7 8 11 14 11 8 10 10 9 8 7 6 7 8 8 8 8 9 10 11 13 16 17 19 20 22 23 25 27 29 29 29 30 30 29 28 29 31 31 29 26 23 22 22 20 18 16 15 14 13 13 12 11 10 10 11 11 11
6 7 7 3 1 5 6 3 2 3 3 4 5 4 4 4 3 4 4 4 8 8 2 8 12 14 13 9 8 8 9 13 10 7 8 8 8 8 5 7 7 7 8 8 8 8 9 10 11 14 17 19 21 22 24 25 26 28 29 30 31 32 31 28 29 31 30 29 28 25 23 22 21 19 17 16 15 14 13 12 12 11 11 10 10 10
3 3 8 7 2 7 11 8 5 4 7 8 8 7 6 5 5 6 6 6 9 6 3 5 4 7 9 8 14 17 14 14 11 8 8 8 9 6 3 6 6 7 7 8 8 8 9 10 10 12 16 19 20 22 24 25 26 27 28 30 31 31 31 29 29 31 31 30 28 27 25 23 22 21 19 17 16 16 15 13 13 13 12 11 11 11
6 6 8 10 4 10 16 13 5 3 7 10 8 7 7 6 6 6 7 8 8 5 1 4 2 5 4 1 12 19 18 15 11 8 8 9 8 3 4 5 5 7 7 7 8 9 9 11 11 12 16 18 20 21 24 25 25 26 27 30 32 32 32 30 30 31 31 29 28 28 27 25 23 22 20 19 18 17 17 16 15 14 14 13 13 13
7 9 6 6 2 12 14 8 3 4 4 7 6 7 8 6 7 7 9 6 3 6 5 5 4 6 6 3 7 11 13 15 12 8 9 10 8 5 4 5 5 7 8 7 8 9 10 10 11 13 15 17 19 21 23 25 27 29 28 30 32 32 32 32 31 31 31 30 28 29 30 28 26 24 22 20 19 19 20 19 18 16 16 16 15 14
6 5 6 4 0 6 5 1 4 2 2 5 6 7 4 1 3 7 9 3 1 6 9 6 6 7 8 8 9 12 12 14 12 9 10 12 10 7 5 5 6 7 8 7 7 8 10 10 11 13 16 17 19 21 24 27 30 32 30 30 32 32 31 32 32 32 31 30 30 31 32 30 29 27 25 23 21 21 21 21 20 19 18 18 16 15
6 4 4 5 2 1 3 3 1 2 1 4 5 4 1 2 1 4 7 4 4 9 9 10 14 11 8 7 8 15 14 14 11 10 11 11 9 8 7 6 6 7 7 7 7 7 9 10 11 13 16 18 20 22 24 26 28 29 29 30 32 33 33 32 33 33 33 32 32 33 34 32 31 29 27 25 23 21 21 21 20 19 18 17 16 15
2 4 3 2 0 3 2 2 3 2 2 1 2 1 1 2 4 5 6 5 7 9 8 14 20 15 10 7 6 14 16 14 13 11 11 10 9 8 8 7 7 7 7 7 8 7 8 9 10 13 15 17 19 20 22 23 26 27 27 29 32 33 32 32 34 36 35 35 35 35 35 33 31 29 27 26 24 22 22 21 20 19 18 16 15 15
2 4 4 1 2 3 3 4 5 5 4 1 4 3 1 2 3 5 5 5 7 8 9 13 17 13 8 6 8 15 15 13 12 11 10 11 12 10 8 7 7 7 7 7 8 8 8 9 11 14 16 18 19 18 19 22 26 26 26 28 31 30 30 33 37 38 36 36 37 36 35 33 31 29 27 26 26 24 23 22 20 19 17 16 15 15
2 4 5 1 1 3 5 7 10 10 8 6 5 6 6 3 1 3 4 6 6 7 8 8 12 12 4 1 5 10 12 12 12 10 9 10 11 11 8 7 6 6 6 7 8 7 8 9 10 13 16 17 18 19 20 23 26 26 26 29 31 30 31 36 38 39 38 37 38 37 35 33 31 29 27 27 26 24 23 22 20 19 18 16 16 15
4 5 7 3 3 6 7 8 10 10 8 8 9 9 9 8 5 4 7 7 3 5 8 7 11 15 3 6 5 7 8 8 9 9 7 7 10 10 9 9 8 7 7 9 9 8 8 8 7 10 14 15 16 18 19 22 26 28 27 30 31 31 35 39 40 40 40 38 38 38 36 33 31 29 28 27 25 24 23 22 20 19 18 17 16 15
3 2 6 8 6 5 4 2 2 3 2 3 6 8 8 9 9 9 8 5 3 4 8 7 10 15 4 8 6 6 7 5 7 9 7 7 10 10 9 10 10 9 9 9 9 8 8 6 6 8 11 13 16 17 19 22 26 28 26 28 31 31 36 40 40 40 40 38 38 37 35 33 31 29 28 27 25 24 23 22 20 18 18 17 15 14
2 1 6 8 5 4 2 2 1 1 2 4 6 8 9 10 10 10 6 2 1 5 8 7 9 14 5 7 3 4 5 6 7 8 9 9 8 9 10 10 9 10 10 9 8 7 6 5 5 7 8 10 14 17 19 20 22 24 24 27 29 30 34 38 39 39 39 38 37 36 34 32 30 30 28 27 26 24 22 21 19 18 17 16 14 14
3 4 6 6 5 5 5 5 4 3 5 7 8 9 11 12 12 9 4 1 4 13 16 10 8 13 8 3 5 11 7 7 9 8 8 9 8 9 11 10 9 10 10 10 10 9 7 6 6 6 6 8 12 16 18 18 19 21 23 27 28 27 31 38 39 39 39 38 36 35 33 32 30 30 29 27 25 23 21 20 19 18 17 16 15 15
5 5 7 8 9 8 10 12 6 4 6 7 8 12 14 15 16 11 5 5 10 18 19 13 11 16 15 12 17 18 10 8 9 8 7 8 9 10 10 9 10 10 9 11 12 11 9 7 6 6 7 8 12 15 17 17 19 20 21 24 26 27 32 38 39 39 38 37 36 34 32 32 31 30 29 27 25 23 21 20 19 18 17 16 16 15
1 3 9 13 14 12 15 16 6 3 6 8 10 14 15 16 18 13 7 9 13 14 13 15 18 19 19 22 28 26 19 15 13 8 6 7 8 9 9 9 10 10 10 11 11 10 9 7 7 8 9 10 12 15 16 17 19 20 22 24 25 28 34 37 39 39 37 36 36 33 32 32 31 30 28 27 25 22 21 20 19 18 17 17 16 14
1 6 11 18 21 20 21 23 19 13 10 11 12 14 15 16 16 15 15 18 16 10 11 17 22 21 18 22 28 29 24 19 16 15 15 11 8 6 7 9 11 10 9 10 10 10 10 10 10 10 10 9 12 15 16 18 19 20 22 23 24 28 34 37 38 37 36 35 34 32 31 31 30 29 27 26 24 22 21 21 19 17 17 17 16 14
2 8 11 17 22 23 22 25 27 25 20 15 14 16 17 17 18 22 25 23 16 12 15 19 24 24 19 19 25 28 24 20 18 19 19 18 15 7 6 9 13 11 10 12 12 12 13 13 13 14 12 9 11 14 16 17 18 20 21 21 23 28 34 36 36 35 34 32 30 29 30 30 28 27 26 25 24 23 21 20 19 18 17 16 15 13
2 6 11 16 18 20 21 22 25 27 23 19 18 18 17 17 24 29 24 16 17 24 27 27 29 26 18 19 25 26 24 21 20 20 18 19 21 13 7 11 16 15 13 13 14 14 16 17 17 16 14 10 9 12 15 16 18 20 20 20 23 28 33 36 35 34 32 28 27 28 29 28 27 26 25 25 23 22 21 19 19 18 17 15 13 12
5 8 11 12 13 15 19 22 26 26 23 22 21 18 17 19 25 26 18 12 18 27 28 27 26 19 14 20 23 21 22 21 20 21 20 21 24 20 14 15 19 19 16 13 14 15 15 16 17 16 14 13 12 13 14 15 17 19 19 20 25 30 33 35 35 33 31 27 27 29 29 28 27 26 25 25 23 22 21 20 19 18 16 14 13 11
7 9 8 8 10 13 16 21 25 25 23 22 20 20 25 28 23 17 14 14 18 20 19 19 17 12 14 19 18 17 22 22 21 22 22 23 24 19 15 17 19 18 16 15 15 15 13 13 15 16 16 14 13 14 15 17 17 18 20 24 28 32 34 35 35 34 32 30 30 31 30 30 29 27 25 25 24 23 22 20 19 17 15 14 12 11
7 7 6 8 10 12 16 20 20 18 15 14 17 24 30 30 23 19 20 22 21 17 13 12 13 13 18 19 18 21 24 21 18 19 20 22 22 15 11 16 18 16 14 14 15 14 13 11 11 14 15 14 15 18 22 24 23 23 27 30 32 34 36 36 37 37 35 33 33 33 32 32 31 29 27 26 25 24 22 20 18 16 14 13 11 10
9 10 8 8 8 11 16 17 13 11 11 12 17 22 25 26 26 27 28 29 25 19 15 14 14 16 20 19 19 23 24 20 19 19 18 18 16 10 11 17 18 15 14 15 14 13 13 11 9 11 13 16 19 22 25 29 29 28 30 32 34 36 38 37 37 36 35 33 34 34 33 33 32 31 28 27 25 23 21 19 18 15 13 12 10 9
10 10 9 7 7 9 10 10 10 11 13 14 14 14 19 26 30 30 29 29 27 26 25 23 20 21 24 22 21 24 24 21 20 19 18 19 16 10 12 19 21 17 15 15 14 14 13 11 9 8 10 14 18 21 23 27 28 28 30 33 36 37 38 37 36 35 34 34 33 34 33 33 32 30 28 26 24 22 21 19 17 15 13 11 10 9
13 10 7 7 7 6 6 8 10 7 4 4 7 11 18 22 23 23 25 27 30 30 27 24 24 26 27 25 24 25 23 18 15 15 17 21 19 13 13 17 19 18 16 14 14 13 11 9 8 8 10 14 18 22 25 28 31 32 33 36 37 37 37 38 37 35 36 35 34 35 35 34 32 29 27 26 24 22 21 18 16 15 12 10 10 9
17 13 8 8 9 8 8 11 12 8 3 5 9 13 16 17 18 20 19 18 20 21 20 20 25 28 28 27 28 24 18 13 11 12 17 22 21 16 15 16 17 17 15 13 12 11 11 9 8 9 12 16 21 26 28 30 34 35 33 33 34 35 37 38 38 37 37 37 36 36 35 34 32 30 27 26 24 23 21 18 16 14 12 11 10 9
19 16 13 11 9 10 12 10 9 10 9 10 15 18 18 19 18 17 15 10 6 12 18 20 24 27 26 26 26 18 8 8 11 13 17 21 20 14 12 14 15 15 14 13 11 9 9 9 9 11 15 19 22 27 29 30 32 34 33 33 34 36 37 38 38 39 39 37 37 37 36 34 33 31 28 26 25 23 21 18 16 13 12 11 10 8
21 16 14 12 7 8 11 8 7 10 8 10 17 20 22 20 11 7 12 8 6 13 23 22 23 25 22 21 20 12 5 6 10 13 16 19 17 11 9 11 12 12 12 12 12 10 9 10 10 11 15 17 20 25 29 31 33 34 35 36 38 39 39 40 41 42 41 39 38 38 36 35 33 31 29 27 25 23 20 18 15 13 12 11 9 7
18 11 12 15 11 10 13 9 6 6 4 7 15 18 21 19 9 7 11 6 8 17 24 23 23 21 18 19 17 12 8 10 12 14 16 16 13 8 8 10 12 12 12 11 10 9 8 10 11 11 14 17 23 28 33 36 36 36 37 40 40 40 43 45 45 43 42 40 38 37 36 34 33 31 29 27 25 22 19 17 15 13 11 10 7 5
11 8 10 13 12 13 15 11 7 6 4 7 13 16 14 9 7 11 12 7 11 20 22 21 21 19 18 18 13 10 12 15 15 15 14 12 10 9 9 9 10 10 9 7 7 7 7 9 11 13 14 19 26 32 37 38 35 36 40 40 39 43 48 47 44 43 41 40 38 37 35 33 32 30 28 26 24 22 19 16 14 13 11 9 7 6
8 7 7 10 10 11 12 9 10 9 6 9 15 18 11 5 6 12 13 12 18 21 19 19 20 18 17 17 14 13 16 16 14 13 11 11 11 11 11 9 8 8 7 4 4 6 7 7 9 11 11 16 24 32 39 38 32 35 40 36 36 45 47 44 43 44 42 40 37 35 34 33 31 29 27 25 23 21 19 16 14 12 10 9 7 5
7 6 6 7 8 8 8 8 9 7 7 15 18 15 10 9 10 12 15 17 19 18 16 16 16 14 15 15 14 15 15 13 13 11 11 12 11 11 11 10 9 10 8 4 3 6 8 6 7 9 10 17 25 34 41 37 29 32 35 30 34 43 43 42 44 43 40 39 36 33 32 31 29 28 27 25 23 21 18 16 14 12 10 9 7 3
9 9 7 6 8 8 7 8 9 8 11 18 18 12 12 17 18 16 17 16 15 12 11 10 11 13 15 15 14 13 12 12 12 12 12 12 10 10 12 10 9 10 8 6 7 11 12 8 7 10 14 21 28 34 41 38 30 28 28 27 33 41 41 41 43 40 38 37 35 32 31 30 29 28 26 24 22 20 18 16 14 12 10 8 7 4
5 6 7 5 5 6 5 4 3 4 4 7 9 9 11 15 16 17 17 15 12 9 7 7 8 9 9 10 10 10 10 11 11 11 11 11 10 11 11 9 9 9 9 8 8 13 15 13 11 12 13 21 30 35 39 39 32 26 25 28 36 42 43 42 42 39 38 36 34 34 33 30 29 28 26 24 23 20 18 17 15 13 11 9 8 6
4 7 7 5 5 8 9 7 8 9 11 11 11 12 13 12 10 10 11 10 10 10 10 9 10 10 9 9 9 9 10 11 11 11 10 10 10 10 10 9 8 7 8 8 9 13 15 12 11 11 11 17 28 35 37 37 33 28 29 34 41 44 45 44 42 39 38 37 35 35 34 32 30 28 26 25 23 21 19 18 17 15 12 10 9 6
5 7 8 7 8 8 7 8 11 13 15 15 14 14 13 11 10 11 9 8 9 11 12 12 13 13 11 10 9 9 12 13 13 13 12 11 12 12 11 11 9 7 8 10 11 13 12 9 10 13 12 14 24 33 36 36 33 31 35 40 43 46 46 46 44 41 39 38 36 35 35 34 32 29 27 25 23 21 19 19 18 17 14 11 9 7
6 10 11 10 9 8 9 11 14 17 17 13 10 8 8 9 10 11 11 10 10 11 12 12 12 12 12 13 12 11 13 14 14 14 14 13 13 12 12 12 11 9 9 10 11 13 12 10 13 15 12 14 23 32 36 35 32 33 39 44 46 48 49 47 46 44 41 39 39 37 35 33 31 30 28 25 23 22 21 20 19 16 13 12 11 9
10 12 11 12 13 13 14 13 11 12 14 11 7 6 7 7 8 10 11 12 13 13 13 13 12 10 10 13 14 13 14 14 14 15 15 14 14 14 13 13 12 11 10 10 11 14 13 13 14 14 12 15 25 31 33 33 34 37 43 47 49 52 51 47 45 44 41 40 39 36 33 32 31 30 28 26 24 21 20 20 18 16 14 12 10 8
10 11 11 11 11 12 13 12 10 9 11 12 11 11 9 7 9 13 14 15 16 15 15 16 16 15 14 14 15 15 15 14 14 15 15 13 13 14 15 13 12 11 10 8 9 11 12 12 14 14 13 17 26 31 32 34 37 41 46 50 52 55 53 48 45 43 40 39 38 36 34 33 31 29 27 27 25 22 19 18 16 14 14 12 9 6
9 11 10 9 10 13 16 15 12 10 11 12 14 16 14 12 14 16 16 16 18 18 18 19 19 19 19 18 16 15 15 15 14 14 13 13 13 13 14 13 12 12 10 8 9 11 13 13 13 13 13 19 28 31 33 36 41 44 48 52 55 57 56 54 48 41 37 38 39 37 36 35 31 28 27 27 27 24 21 18 14 12 11 10 9 7
Wind_Direction
191 223 226 238 240 237 235 230 235 250 267 278 277 274 270 270 270 270 264 151 184 222 237 243 249 256 261 263 263 266 268 269 266 261 258 258 256 252 245 237 225 220 214 191 193 192 187 187 185 184 185 184 185 188 187 184 183 181 180 182 183 184 182 182 181 182 183 181 183 187 189 195 199 199 202 210 218 221 220 228 240 247 254 259 266 274
189 223 235 241 248 255 259 256 252 256 266 267 264 269 269 263 266 270 238 145 175 217 252 257 259 260 261 264 265 264 261 262 265 263 260 262 263 258 248 240 230 218 194 178 187 185 180 180 179 180 183 183 186 189 189 187 184 182 183 184 184 183 184 185 185 185 186 187 187 187 190 190 190 193 196 202 214 223 225 231 240 245 252 257 262 265
212 228 242 245 251 266 272 278 264 260 262 261 255 258 263 262 267 267 128 139 177 205 264 270 270 269 267 266 264 259 254 251 254 257 260 266 269 263 253 246 232 205 182 184 187 181 176 176 176 179 184 188 189 189 190 189 185 183 185 186 184 184 186 187 188 188 187 188 187 185 186 185 182 187 195 196 198 211 223 233 241 245 249 252 253 257
220 234 247 247 223 237 253 241 241 256 253 242 241 249 254 255 264 263 155 156 196 215 274 289 280 272 268 262 254 251 249 245 246 252 258 263 262 259 258 254 233 201 186 192 192 183 177 176 179 184 187 189 190 190 191 190 187 186 187 187 185 185 186 187 189 190 186 182 182 181 182 182 181 186 198 204 209 217 226 234 242 246 248 248 244 250
239 239 211 184 172 232 251 229 214 241 248 232 226 235 248 252 256 263 300 339 240 230 257 291 281 267 255 245 240 241 240 239 241 247 256 257 253 254 257 252 233 208 193 195 194 186 181 182 186 189 189 188 190 193 192 190 189 188 189 188 185 185 186 187 189 187 181 178 180 181 181 186 189 192 200 208 216 224 230 234 238 243 245 244 245 252
248 232 112 203 209 214 238 238 220 225 251 245 223 229 245 258 264 269 322 359 289 261 173 284 293 275 234 229 230 184 167 222 227 231 242 252 253 246 242 238 221 204 200 202 196 186 184 187 189 190 189 190 193 195 193 191 191 190 189 187 185 185 186 187 187 183 181 183 184 183 182 186 191 196 203 208 208 211 219 226 227 230 235 241 249 256
248 131 120 234 229 214 231 249 235 218 246 254 229 239 248 257 266 270 293 310 280 283 187 105 310 289 247 222 231 198 188 212 205 219 230 237 249 243 232 213 194 194 196 202 197 185 186 187 188 190 191 193 195 195 192 191 192 190 188 187 185 186 187 187 186 184 186 187 186 188 190 191 192 196 202 204 200 194 196 201 205 218 235 247 254 257
182 164 189 216 221 228 229 249 235 208 230 252 19 358 257 250 257 255 267 249 261 293 271 182 232 278 273 228 219 224 231 232 229 241 241 227 230 241 243 196 174 190 188 189 193 187 189 188 189 192 192 194 194 191 190 189 191 190 188 188 186 187 188 187 188 188 190 190 187 189 192 194 195 195 191 187 185 187 192 199 209 221 237 250 256 258
142 184 196 187 200 227 223 267 233 197 220 265 54 37 69 79 248 214 241 255 272 293 271 199 177 254 280 230 195 211 225 235 237 242 248 241 224 229 241 210 168 188 186 183 190 188 191 190 190 192 191 192 192 189 189 188 188 189 190 189 187 189 187 186 191 192 193 193 190 188 190 191 193 191 184 179 182 191 202 214 221 225 231 241 252 258
78 171 207 187 203 227 196 38 16 213 219 142 106 82 77 89 98 148 243 270 282 271 258 210 169 222 282 244 172 195 210 219 231 236 238 245 234 219 231 213 166 184 188 184 189 187 189 189 189 190 188 189 189 189 190 187 186 187 189 189 189 190 188 188 193 194 194 193 190 189 190 189 188 188 187 187 190 194 204 215 221 226 228 229 235 244
124 100 18 216 217 211 101 68 25 13 110 135 145 114 112 189 167 206 240 265 277 264 249 202 179 202 272 243 149 179 202 202 210 222 221 230 235 218 217 202 171 180 184 182 185 182 182 182 182 184 186 187 186 186 187 186 186 187 188 190 191 191 189 190 192 193 193 193 191 190 190 190 188 186 185 188 193 196 202 210 215 223 227 225 225 232
187 172 192 206 176 125 112 99 60 57 126 166 176 194 229 229 198 214 213 168 247 263 237 183 183 198 233 221 156 185 200 196 192 210 224 225 231 222 199 184 179 179 177 175 177 174 172 175 177 181 187 187 184 184 186 187 187 188 190 191 192 193 191 189 189 191 192 192 191 190 191 193 191 187 187 190 194 197 203 208 211 218 223 229 235 239
206 204 186 139 115 180 173 162 118 118 182 203 193 195 234 246 229 231 217 192 235 254 140 155 185 208 234 244 229 225 206 196 196 216 234 232 234 233 190 165 170 172 173 172 170 171 174 176 178 183 187 187 186 187 188 188 187 189 192 192 193 194 191 188 188 190 191 192 192 191 191 194 194 194 194 195 196 199 204 207 209 214 218 226 232 236
219 226 169 159 203 193 187 196 206 189 183 192 191 186 206 231 248 250 241 237 245 246 129 131 188 234 256 249 226 230 221 206 211 220 224 228 230 231 171 147 159 171 176 172 170 175 179 181 183 184 187 188 189 190 189 190 189 190 192 193 195 195 191 189 189 188 189 191 192 193 193 194 196 197 197 197 199 201 205 206 209 214 217 222 228 235
242 271 174 169 172 169 188 210 212 135 174 194 196 197 213 228 243 251 255 256 265 288 194 153 191 237 266 217 198 217 220 210 217 214 205 222 221 183 118 143 163 180 186 176 174 181 184 184 183 183 187 190 191 191 190 191 190 190 193 195 195 195 191 189 189 187 188 189 189 192 195 195 197 199 200 202 204 206 209 212 214 218 224 229 234 242
239 261 168 141 133 163 182 209 158 111 183 194 183 207 231 236 230 247 269 269 300 319 272 198 219 245 263 269 184 198 207 201 211 209 201 222 215 159 154 188 185 190 191 183 181 186 186 185 185 185 188 191 191 191 190 191 191 192 194 195 195 194 191 190 191 187 186 187 187 192 197 198 198 201 201 204 207 210 214 218 220 224 231 236 239 244
231 259 144 121 331 164 171 229 160 187 218 164 176 205 223 278 229 244 265 271 121 279 268 235 246 257 269 263 186 168 190 198 200 198 203 221 215 191 199 198 190 197 194 188 187 185 184 185 189 189 189 190 190 190 193 193 194 194 193 192 193 193 191 190 190 186 184 185 187 192 197 198 200 202 203 205 208 211 215 220 224 227 232 237 240 244
228 264 175 170 211 148 359 345 161 284 291 144 187 209 111 44 310 246 257 263 244 261 270 264 266 267 269 267 171 167 197 204 195 200 207 216 213 207 213 206 199 196 190 196 196 191 191 189 191 192 193 195 193 193 195 195 195 196 194 191 190 190 191 189 188 188 187 186 189 192 195 198 200 203 205 207 208 210 215 220 224 230 234 238 241 244
207 251 231 162 144 108 72 266 195 228 239 175 282 298 84 223 209 204 224 244 249 255 265 270 276 272 253 255 178 177 199 200 195 206 211 208 209 210 217 221 212 190 184 200 199 196 199 196 196 196 195 198 198 196 196 193 194 196 195 195 193 192 191 190 191 193 191 191 193 192 194 197 200 203 205 207 208 211 216 220 225 230 233 236 239 243
169 230 238 44 14 117 138 225 201 178 183 260 302 273 228 250 231 211 210 225 238 247 261 273 282 278 253 246 201 183 190 194 193 202 206 208 212 210 211 222 215 194 189 199 203 200 198 201 204 200 198 200 199 198 195 193 195 195 193 195 195 192 191 192 194 194 191 192 194 192 193 196 199 202 204 207 210 212 216 221 225 228 230 233 237 243
150 224 232 75 344 212 195 202 195 189 181 187 223 217 201 196 281 287 245 234 237 246 255 263 272 273 275 155 181 167 171 185 187 195 199 201 211 211 208 216 216 205 200 201 206 203 195 198 199 197 200 201 200 200 197 196 197 195 194 196 194 191 191 193 195 193 192 193 193 192 192 195 197 200 202 206 210 212 216 221 223 225 228 231 236 241
177 208 221 204 203 223 219 195 196 201 186 185 199 202 199 187 183 235 235 225 218 239 246 244 260 267 265 101 125 136 149 178 182 188 193 191 203 209 209 216 219 215 215 213 210 206 200 193 182 184 190 190 194 197 194 196 198 195 194 196 194 192 194 195 194 193 193 192 191 192 192 193 196 198 201 205 207 210 214 217 220 222 226 229 235 238
171 172 223 230 222 225 223 173 212 220 176 222 223 208 208 195 193 216 223 213 182 222 246 245 256 264 240 112 118 128 140 180 183 182 204 209 200 201 206 213 217 218 223 223 216 212 208 192 169 172 178 183 192 195 193 195 198 196 192 191 191 193 196 197 195 193 192 190 190 190 190 192 194 196 199 202 205 208 211 214 216 219 224 229 232 234
90 134 224 240 258 278 261 123 51 55 165 242 242 215 215 211 210 222 234 254 195 208 230 231 243 259 247 117 147 238 200 209 203 194 220 227 203 203 213 211 212 217 222 224 221 215 203 178 166 173 178 188 196 198 198 195 193 192 189 188 190 192 196 196 193 192 191 189 188 188 188 190 192 194 197 199 202 206 208 210 213 216 223 229 230 232
172 197 213 233 253 265 261 230 216 195 190 219 229 214 215 218 217 229 248 292 247 236 237 240 244 254 251 147 239 257 230 203 206 199 214 225 208 208 216 212 213 217 217 220 221 215 198 179 178 185 188 193 194 198 200 195 190 189 188 189 190 188 192 194 192 190 190 187 185 185 186 188 190 192 195 196 199 202 203 206 211 216 223 228 231 236
190 196 196 218 229 220 231 239 228 171 183 210 227 216 213 212 209 218 229 218 237 241 239 241 248 255 266 277 272 264 246 220 217 198 193 216 222 224 221 211 212 216 213 215 220 217 204 189 186 192 196 197 196 197 196 192 191 190 189 191 189 186 190 192 190 189 187 186 184 182 184 186 188 191 192 193 196 199 200 204 210 216 223 228 232 236
196 220 205 223 236 225 231 244 250 122 164 191 213 214 212 211 209 213 224 226 234 241 238 238 246 254 265 271 273 271 267 264 262 254 235 219 216 222 221 214 213 214 213 214 219 219 210 199 196 202 206 201 195 193 192 192 192 189 188 189 186 187 190 189 188 187 185 184 183 182 183 185 187 188 190 192 193 195 198 203 209 214 220 227 231 235
339 250 230 237 244 240 242 250 254 251 228 205 204 210 208 207 207 211 223 230 232 240 245 241 244 252 254 257 266 272 272 271 273 276 275 268 249 220 209 222 227 222 221 222 221 220 217 215 213 212 210 197 189 190 190 192 191 188 188 185 181 185 188 186 185 185 184 183 182 182 182 184 185 186 187 189 191 194 198 203 208 213 219 226 231 238
272 255 247 249 253 250 250 253 255 258 253 233 224 227 219 208 207 215 225 229 228 237 249 248 248 252 251 251 259 266 270 274 277 278 280 282 280 256 190 218 236 234 231 233 232 228 225 226 225 221 213 191 184 189 189 189 188 186 185 181 178 184 187 185 183 182 182 180 179 180 181 181 181 181 183 186 190 195 199 204 210 214 219 226 232 240
227 253 247 252 261 260 257 258 258 260 262 255 247 244 236 224 222 227 230 223 222 235 243 247 251 255 256 256 256 261 270 277 280 281 281 280 279 269 226 236 253 255 250 244 240 236 233 232 233 230 219 195 183 188 188 185 184 183 179 174 177 183 184 183 182 180 179 176 175 177 178 177 177 178 182 186 190 195 200 204 210 215 220 226 233 242
207 229 237 248 262 258 254 257 257 257 262 262 259 258 258 251 240 238 236 221 224 238 243 246 253 260 260 257 257 264 272 276 278 280 279 276 275 273 266 264 268 271 271 265 255 250 243 237 234 234 227 211 198 189 183 181 179 178 173 171 177 182 183 182 181 179 178 174 173 175 174 175 176 178 183 188 191 197 202 205 210 215 220 226 232 240
202 228 236 240 252 250 244 248 252 255 259 260 260 257 252 250 247 244 243 234 231 240 248 250 253 255 254 258 264 269 268 268 270 273 274 274 275 278 276 269 268 271 274 272 268 265 257 241 230 230 229 219 203 189 181 176 170 168 172 176 180 181 180 180 179 178 178 176 175 174 174 176 177 179 184 189 194 199 203 206 211 215 220 225 231 240
195 218 224 224 243 249 243 246 252 255 258 253 241 238 239 244 253 257 255 249 238 234 239 241 238 242 251 259 266 267 263 260 259 262 267 272 276 278 266 261 267 271 272 270 268 266 262 250 230 226 227 221 206 197 191 184 177 178 182 183 181 179 178 179 179 179 177 176 175 174 175 177 178 180 185 190 195 199 203 206 209 214 219 223 230 238
204 213 220 220 235 245 240 245 252 246 239 235 231 233 238 244 246 246 246 246 242 236 235 233 234 242 247 248 252 258 259 257 257 261 264 269 274 274 265 268 273 274 271 267 263 262 263 258 240 227 225 220 209 200 196 192 189 187 185 182 179 178 178 178 179 178 175 173 174 174 175 177 179 181 185 190 194 197 200 204 207 211 217 221 229 236
212 217 225 221 233 246 240 242 247 235 230 238 240 236 237 241 242 244 249 251 250 247 244 241 241 243 245 247 249 253 254 255 263 270 272 271 270 264 266 273 277 275 272 269 267 267 266 264 254 234 218 212 203 192 188 188 187 182 179 179 178 178 179 178 176 175 173 172 173 175 176 177 179 181 185 189 192 194 197 201 204 208 212 218 227 235
218 221 221 218 227 238 225 218 230 236 219 213 224 226 232 239 242 248 253 251 247 247 247 248 247 246 247 250 250 250 252 259 270 274 273 273 270 261 256 263 270 272 268 266 268 270 270 269 256 227 207 197 188 183 183 185 184 179 177 179 180 178 178 176 173 173 173 172 174 176 177 178 179 180 184 187 188 190 194 198 201 204 207 214 223 232
217 219 216 219 218 219 227 224 228 249 245 165 192 215 221 221 221 228 240 243 242 247 250 248 247 245 246 249 251 253 258 266 271 267 264 267 268 264 256 255 262 265 264 262 262 263 266 263 242 217 201 186 181 184 187 185 183 179 175 176 178 176 175 174 173 173 174 174 175 176 178 180 180 180 182 185 186 188 192 195 198 200 203 211 221 231
215 216 216 223 214 211 233 236 226 239 234 206 215 227 228 228 227 233 247 249 239 252 251 243 242 244 243 248 254 257 255 251 254 257 258 261 264 260 250 250 254 255 257 258 252 246 244 236 222 209 194 182 184 189 186 180 178 175 171 172 173 173 173 174 175 175 175 175 176 177 179 181 181 181 182 183 185 187 189 191 194 197 200 209 221 231
220 219 221 232 229 215 234 241 223 233 230 211 224 236 241 243 239 242 256 244 194 237 248 244 243 245 245 250 253 245 207 216 243 251 249 253 260 256 238 242 249 249 251 250 245 238 222 204 199 196 186 182 188 188 181 177 175 171 169 172 173 173 175 178 179 178 176 175 176 177 179 181 181 182 181 182 184 186 187 189 191 193 199 207 217 229
218 218 221 230 233 227 235 241 231 239 232 198 217 234 246 247 229 218 247 233 188 226 242 245 247 246 244 247 247 234 215 219 234 245 245 249 259 253 226 229 238 242 245 243 243 241 211 185 177 178 183 189 190 185 180 177 174 171 173 174 174 177 181 183 181 178 176 175 175 177 178 179 181 181 180 182 182 182 185 186 186 190 198 204 209 222
214 210 213 224 228 224 229 238 243 242 206 187 219 236 244 248 226 226 240 231 216 230 237 242 247 246 241 243 243 235 231 230 233 244 252 258 265 255 236 231 234 241 248 246 238 217 189 184 188 194 201 198 188 182 180 175 173 176 177 174 177 184 186 183 178 175 174 174 174 175 176 177 179 179 179 180 180 179 181 181 182 189 194 196 202 215
207 206 210 219 226 227 228 236 250 247 190 184 225 237 231 220 227 232 235 232 231 235 236 239 244 244 241 242 240 239 244 244 244 249 253 255 256 253 248 239 234 242 248 246 225 188 175 189 200 202 207 195 185 183 179 175 176 180 177 176 186 188 183 177 174 173 172 171 171 172 173 173 175 175 176 177 176 176 177 177 181 187 187 189 199 211
193 203 213 203 209 230 233 226 240 245 177 189 219 231 216 215 233 239 240 240 238 237 235 237 242 245 246 246 243 244 249 252 253 253 252 252 251 251 252 243 235 238 230 209 197 181 176 190 197 189 187 185 185 185 181 177 180 182 179 184 190 184 175 172 172 170 168 166 166 167 168 169 171 173 173 174 175 174 173 175 178 181 180 183 187 182
194 204 224 203 192 212 222 216 228 231 197 197 212 218 210 217 226 233 241 247 247 242 238 241 243 243 246 250 251 250 249 249 251 254 258 260 256 253 254 247 236 233 217 194 189 181 178 189 195 186 184 183 184 186 185 184 184 183 184 186 182 174 169 169 169 165 162 162 160 161 165 167 170 171 171 172 173 171 171 173 174 175 176 172 165 154
212 245 272 261 223 233 263 278 286 292 255 228 237 252 251 246 245 245 251 258 263 265 269 275 275 273 276 281 281 274 268 263 262 261 262 266 266 262 262 254 239 227 211 197 188 181 185 193 189 182 183 184 186 189 191 190 186 183 184 180 173 168 167 165 164 160 158 157 157 160 163 165 168 169 170 171 171 169 170 172 171 173 173 164 156 158
327 326 325 321 324 330 326 337 5 358 337 327 320 312 310 312 309 298 292 295 305 318 329 329 325 331 338 339 333 316 300 296 296 291 287 285 281 276 272 263 248 226 206 199 191 187 191 194 186 181 183 187 191 193 194 194 191 184 178 173 169 168 166 163 160 157 155 156 158 161 163 164 165 167 169 171 170 168 170 172 172 173 171 161 156 159
322 348 344 321 317 328 322 337 351 335 315 313 312 307 312 330 349 351 340 329 330 333 333 334 334 333 333 336 335 318 304 304 304 300 297 292 285 281 277 269 257 233 211 209 202 190 185 184 188 192 191 190 191 193 193 194 193 184 174 169 168 168 166 163 160 157 156 157 158 160 163 165 165 167 169 169 168 169 172 174 173 171 166 161 159 159
317 339 336 314 304 301 292 302 309 299 292 295 295 303 330 350 352 344 334 330 332 328 325 326 325 323 322 320 314 302 294 294 294 292 291 289 285 281 276 270 263 246 228 219 201 184 182 194 200 199 197 192 189 190 190 190 188 180 173 170 169 168 166 164 161 158 157 158 159 161 164 165 165 167 168 168 168 170 173 174 171 166 164 163 159 154
301 307 305 299 298 296 291 295 299 293 292 296 303 327 347 345 332 326 324 323 323 320 319 316 310 309 310 305 302 299 293 287 286 284 282 281 281 278 274 271 265 255 243 226 202 190 195 206 202 196 200 196 187 185 185 185 182 178 173 171 171 169 166 162 160 158 157 159 160 160 162 164 165 167 167 166 167 170 174 174 169 164 162 160 149 143
279 278 281 288 289 285 288 302 319 315 302 301 312 322 326 324 321 318 314 313 311 308 307 305 300 297 293 288 289 290 287 283 281 278 276 275 275 275 275 275 273 266 252 226 202 200 207 211 204 199 201 193 183 180 181 181 179 176 174 172 172 170 166 161 158 156 157 159 161 161 162 164 165 166 166 166 168 171 172 170 165 159 155 152 149 149
257 263 270 277 277 278 287 301 314 312 300 298 305 309 311 313 311 305 302 301 298 295 294 293 292 292 289 285 280 276 275 278 278 277 278 276 271 272 275 275 274 269 252 213 190 201 210 209 203 200 199 189 182 180 180 178 175 174 174 174 173 172 168 162 157 156 159 162 163 163 163 164 164 164 165 167 169 169 167 163 161 158 150 146 150 154